EW1011 Weather Reports


Display with metric or nautical units.
time (UTC)temp
F
wind
direction
speed
MPH
gust
MPH
rain 1hr
in
rain 24hr
in
rain mn
in
humidity
%
barometer
mb
20260505003046 65 94 0.0 0.0 0.00 0.00 0.00 59 1008.8
20260505001546 66 94 0.0 4.0 0.00 0.00 0.00 56 1008.5
20260505000052 67 100 0.0 2.0 0.00 0.00 0.00 53 1008.6
20260504234544 68 101 0.0 3.0 0.00 0.00 0.00 49 1008.7
20260504233043 69 141 0.0 2.0 0.00 0.00 0.00 46 1008.7
20260504231541 70 105 1.0 6.0 0.00 0.00 0.00 44 1008.6
20260504230046 70 280 0.0 8.0 0.00 0.00 0.00 44 1008.6
20260504224546 71 237 1.0 8.0 0.00 0.00 0.00 42 1008.6
20260504223040 72 108 0.0 7.0 0.00 0.00 0.00 41 1008.6
20260504221540 73 79 1.0 6.0 0.00 0.00 0.00 39 1008.6
20260504220038 73 113 1.0 7.0 0.00 0.00 0.00 38 1008.4
20260504214542 74 7 0.0 5.0 0.00 0.00 0.00 37 1008.5
20260504213038 74 72 0.0 10.0 0.00 0.00 0.00 36 1008.5
20260504211536 74 106 1.0 5.0 0.00 0.00 0.00 35 1008.7
20260504210050 74 260 0.0 8.0 0.00 0.00 0.00 35 1008.5
20260504204552 76 175 0.0 5.0 0.00 0.00 0.00 37 1008.7
20260504203036 76 97 0.0 4.0 0.00 0.00 0.00 34 1008.7
20260504201532 76 221 0.0 3.0 0.00 0.00 0.00 35 1008.8
20260504200032 76 125 0.0 5.0 0.00 0.00 0.00 35 1008.9
20260504194530 77 142 0.0 2.0 0.00 0.00 0.00 34 1009.2
20260504193030 76 106 0.0 5.0 0.00 0.00 0.00 34 1009.4
20260504191531 77 146 0.0 5.0 0.00 0.00 0.00 33 1009.8
20260504190026 77 107 1.0 8.0 0.00 0.00 0.00 33 1009.9
20260504184527 76 200 0.0 9.0 0.00 0.00 0.00 35 1010.2
20260504183025 76 80 2.0 7.0 0.00 0.00 0.00 31 1010.4
20260504181523 77 106 1.0 6.0 0.00 0.00 0.00 30 1010.4
20260504180022 75 123 0.0 5.0 0.00 0.00 0.00 31 1010.6
20260504174521 74 162 1.0 6.0 0.00 0.00 0.00 30 1010.8
20260504173020 74 258 2.0 7.0 0.00 0.00 0.00 31 1010.9
20260504171518 73 264 0.0 5.0 0.00 0.00 0.00 33 1011.1
20260504081509 49 260 0.0 0.0 0.00 0.00 0.00 68 1014.0
20260504044550 44 260 0.0 0.0 0.00 0.00 0.00 75 1014.5
20260504043054 44 260 0.0 0.0 0.00 0.00 0.00 75 1014.4
20260504041546 44 260 0.0 0.0 0.00 0.00 0.00 75 1014.4
20260504040045 45 260 0.0 0.0 0.00 0.00 0.00 73 1014.2
20260504034550 45 260 0.0 0.0 0.00 0.00 0.00 74 1014.1
20260504033042 45 260 0.0 0.0 0.00 0.00 0.00 75 1014.0
20260504031543 46 260 0.0 0.0 0.00 0.00 0.00 72 1013.8
20260504030040 46 260 0.0 0.0 0.00 0.00 0.00 71 1013.9
20260504024546 46 260 0.0 0.0 0.00 0.00 0.00 70 1013.7
20260504023039 47 260 0.0 0.0 0.00 0.00 0.00 67 1013.8
20260504021540 48 260 0.0 0.0 0.00 0.00 0.00 65 1013.7
20260504020041 48 260 0.0 0.0 0.00 0.00 0.00 63 1013.6
20260504014539 48 260 0.0 0.0 0.00 0.00 0.00 60 1013.6
20260504013053 49 260 0.0 0.0 0.00 0.00 0.00 60 1013.5
20260504011536 50 260 0.0 0.0 0.00 0.00 0.00 57 1013.5
20260504010040 51 260 0.0 0.0 0.00 0.00 0.00 55 1013.4
20260504004536 52 260 0.0 0.0 0.00 0.00 0.00 51 1013.3